Location: Cheching
(60.0667°N, 164.2167°W)
Time: 02:05:35
(UTC+00:00)

UNISAT 6 - Pass Details

Date: 25 January 2021
Orbit: 607 x 687 km, 97.7° (Epoch: 05 March)

Event Time Altitude Azimuth Distance (km) Brightness Sun altitude
Rises 16:57:04 0° 151° (SSE) 2,881 ? -17.7°
Reaches altitude 10° 16:59:14 10° 149° (SSE) 1,988 ? -17.4°
Maximum altitude 17:03:31 64° 68° (ENE) 700 ? -16.9°
Drops below altitude 10° 17:07:55 10° 348° (NNW) 2,045 ? -16.4°
Enters shadow 17:09:55 - 345° (NNW) 2,864 ? -16.1°
